Weather Roundup
Issued by NWS Springfield, MO

Home | Current Version | Previous Version | Text Only | Print | Product List | Glossary On
Versions: 1 2 3 4 5 6 7 8 9 10 11 12 13 14 15 16 17 18 19 20 21 22 23 24 25 26 27 28 29 30 31 32 33 34 35 36 37 38 39 40 41 42 43 44 45 46 47 48 49 50
000
NZUS99 KSGF 310307
HRRSGF

HOURLY WEATHER
NATIONAL WEATHER SERVICE SPRINGFIELD MO
1000 PM CDT MON MAY 30 2016

......SGF CWA......

CITY           SKY/WX    TMP DP  RH WIND       PRES   REMARKS
SPRINGFIELD    CLOUDY    66  60  81 E7        29.98F
JOPLIN         CLOUDY    66  63  90 SE8       29.98R
WEST PLAINS    MOCLDY    65  62  90 CALM      30.02F
ROLLA          CLOUDY    64  62  93 E6        29.99F

......SURROUNDING SGF CWA......

CITY           SKY/WX    TMP DP  RH WIND       PRES   REMARKS
CHANUTE        CLEAR     66  62  87 E6        29.97R
PARSONS        MOCLDY    68  63  84 CALM      29.97S
COFFEYVILLE    CLOUDY    67  63  87 SE5       29.96S
EMPORIA        CLEAR     67  61  81 SE9       29.95R
GROVE OK       CLOUDY    68  63  83 E6        29.96F
ROGERS AR        N/A     66  64  93 E8        29.99F
SILOAM SPRINGS CLOUDY    66  57  72 E5        29.98F
HARRISON AR    CLOUDY    67  66  97 E5        30.01F
NEAR YELLVILLE MOCLDY   N/A N/A N/A CALM      29.98R

......KANSAS AND MISSOURI......

CITY           SKY/WX    TMP DP  RH WIND       PRES   REMARKS
KANSAS CTY INT CLEAR     66  58  75 S12       29.95F
DOWNTOWN KC    CLEAR     70  59  68 S13       29.95F
COLUMBIA       CLOUDY    67  61  81 SE3       30.00S
SEDALIA        CLOUDY    67  61  81 SE5       29.99R
ST JOSEPH      CLEAR     70  63  78 S8        29.94S
ST LOUIS       NOT AVBL
SPIRIT OF STL  CLOUDY    69  65  86 SW7       29.99R
KIRKSVILLE     PTCLDY    66  61  84 S6        29.99S
WICHITA        PTCLDY    70  62  76 SE14      29.92R
TOPEKA         CLEAR     71  59  65 S9        29.94S
OLATHE         CLEAR     64  59  83 S8        29.98S

......TENNESSEE......

CITY           SKY/WX    TMP DP  RH WIND       PRES   REMARKS
MEMPHIS        CLOUDY    82  63  52 E3        29.97R
NASHVILLE      PTCLDY    76  58  53 N3        29.99R

......ARKANSAS.......

CITY           SKY/WX    TMP DP  RH WIND       PRES   REMARKS
FAYETTEVILLE   CLOUDY    66  66 100 CALM      29.98S
FT SMITH       CLOUDY    71  67  87 E5        29.95R
LITTLE ROCK    LGT RAIN  69  65  86 E9        29.97F

......OKLAHOMA.......

CITY           SKY/WX    TMP DP  RH WIND       PRES   REMARKS
TULSA          CLEAR     68  65  90 E7        29.93S
PONCA CITY     CLEAR     69  63  81 SE13      29.92R
MCALESTER      PTCLDY    71  67  87 E5        29.94R
OKLAHOMA CITY  PTCLDY    72  67  84 SE10      29.92R

......IOWA............

CITY           SKY/WX    TMP DP  RH WIND       PRES   REMARKS
DES MOINES     CLOUDY    72  55  55 S9        29.91F
QUAD CITIES    CLEAR     72  62  71 S3        29.95R

......ILLINOIS........

CITY           SKY/WX    TMP DP  RH WIND       PRES   REMARKS
QUINCY         PTCLDY    74  64  71 W9        29.98R
CHICAGO        CLOUDY    71  55  56 E8        29.98R




USA.gov is the U.S. government's official web portal to all federal, state and local government web resources and services.